• In Schweiz
  • Länderverzeichnis
  • Für 7 Tage
  • Wassertemperatur
  • Satellitenkarten
  • Wetterkarte
  • Widgets
  • user-avatar
    Anmelden

    Stündliche Wetter Kalgoorlie

    Heute, 20 August, Montag

    Zeit Temperatur Niederschläge Wind Luftdruck Luftfeuchtigkeit
    00:00 +13°C° 0 mm 3 m/S 736 mmHg 33%
    01:00 +13°C° 0 mm 4 m/S 735 mmHg 34%
    02:00 +12°C° 0 mm 4 m/S 735 mmHg 35%
    03:00 +12°C° 0 mm 4 m/S 735 mmHg 36%
    04:00 +11°C° 0 mm 4 m/S 735 mmHg 36%
    05:00 +11°C° 0 mm 4 m/S 735 mmHg 37%
    06:00 +12°C° 0 mm 4 m/S 735 mmHg 36%
    07:00 +13°C° 0 mm 4 m/S 735 mmHg 35%
    08:00 +14°C° 0 mm 6 m/S 734 mmHg 30%
    09:00 +17°C° 0 mm 6 m/S 734 mmHg 26%
    10:00 +20°C° 0 mm 5 m/S 734 mmHg 23%
    11:00 +22°C° 0 mm 5 m/S 734 mmHg 19%
    12:00 +23°C° 0 mm 5 m/S 733 mmHg 18%
    13:00 +25°C° 0 mm 4 m/S 732 mmHg 16%
    14:00 +26°C° 0 mm 4 m/S 732 mmHg 15%
    15:00 +26°C° 0 mm 4 m/S 731 mmHg 16%
    16:00 +25°C° 0 mm 3 m/S 731 mmHg 17%
    17:00 +24°C° 0 mm 3 m/S 731 mmHg 18%
    18:00 +22°C° 0 mm 3 m/S 731 mmHg 19%
    19:00 +21°C° 0 mm 4 m/S 731 mmHg 19%
    20:00 +20°C° 0 mm 4 m/S 731 mmHg 20%
    21:00 +19°C° 0 mm 4 m/S 730 mmHg 20%
    22:00 +19°C° 0 mm 5 m/S 730 mmHg 20%
    23:00 +17°C° 0 mm 5 m/S 729 mmHg 20%

    Morgen, 21 August, Dienstag

    Zeit Temperatur Niederschläge Wind Luftdruck Luftfeuchtigkeit
    00:00 +19°C° 0 mm 6 m/S 729 mmHg 20%
    01:00 +19°C° 0 mm 6 m/S 728 mmHg 20%
    02:00 +19°C° 0 mm 6 m/S 728 mmHg 19%
    03:00 +19°C° 0 mm 6 m/S 728 mmHg 20%
    04:00 +17°C° 0 mm 5 m/S 727 mmHg 20%
    05:00 +17°C° 0 mm 5 m/S 727 mmHg 21%
    06:00 +17°C° 0 mm 5 m/S 727 mmHg 26%
    07:00 +17°C° 0 mm 5 m/S 727 mmHg 32%
    08:00 +19°C° 0 mm 6 m/S 727 mmHg 37%
    09:00 +20°C° 0 mm 6 m/S 727 mmHg 37%
    10:00 +21°C° 0 mm 7 m/S 727 mmHg 36%
    11:00 +22°C° 0 mm 8 m/S 727 mmHg 36%
    12:00 +22°C° 0 mm 8 m/S 727 mmHg 35%
    13:00 +22°C° 0 mm 9 m/S 726 mmHg 35%
    14:00 +22°C° 0 mm 9 m/S 725 mmHg 34%
    15:00 +21°C° 0 mm 9 m/S 726 mmHg 37%
    16:00 +21°C° 0 mm 9 m/S 726 mmHg 40%
    17:00 +20°C° 0 mm 8 m/S 726 mmHg 44%
    18:00 +18°C° 0 mm 8 m/S 726 mmHg 48%
    19:00 +17°C° 0 mm 8 m/S 727 mmHg 52%
    20:00 +17°C° 0 mm 8 m/S 727 mmHg 56%
    21:00 +16°C° 0 mm 8 m/S 728 mmHg 60%
    22:00 +15°C° 0 mm 9 m/S 728 mmHg 65%
    23:00 +12°C° 0 mm 9 m/S 728 mmHg 70%

    übermorgen, 22 August, Mittwoch

    Zeit Temperatur Niederschläge Wind Luftdruck Luftfeuchtigkeit
    00:00 +11°C° 0 mm 9 m/S 729 mmHg 71%
    01:00 +10°C° 0 mm 9 m/S 729 mmHg 72%
    02:00 +9°C° 0 mm 8 m/S 729 mmHg 73%
    03:00 +7°C° 0 mm 8 m/S 730 mmHg 70%
    04:00 +6°C° 0 mm 8 m/S 730 mmHg 68%
    05:00 +6°C° 0 mm 7 m/S 730 mmHg 65%
    06:00 +6°C° 0 mm 8 m/S 731 mmHg 62%
    07:00 +6°C° 0 mm 8 m/S 732 mmHg 58%
    08:00 +6°C° 0 mm 9 m/S 732 mmHg 55%
    09:00 +8°C° 0 mm 9 m/S 733 mmHg 50%
    10:00 +10°C° 0 mm 9 m/S 733 mmHg 44%
    11:00 +12°C° 0 mm 9 m/S 733 mmHg 39%
    12:00 +12°C° 0 mm 9 m/S 733 mmHg 38%
    13:00 +13°C° 0 mm 9 m/S 733 mmHg 37%
    14:00 +15°C° 0 mm 8 m/S 732 mmHg 35%
    15:00 +13°C° 0 mm 8 m/S 733 mmHg 38%
    16:00 +12°C° 0 mm 8 m/S 733 mmHg 41%
    17:00 +12°C° 0 mm 8 m/S 733 mmHg 44%
    18:00 +11°C° 0 mm 7 m/S 734 mmHg 48%
    19:00 +10°C° 0 mm 6 m/S 735 mmHg 51%
    20:00 +9°C° 0 mm 5 m/S 736 mmHg 55%
    21:00 +8°C° 0 mm 4 m/S 736 mmHg 58%
    22:00 +8°C° 0 mm 4 m/S 736 mmHg 61%
    23:00 +7°C° 0 mm 4 m/S 737 mmHg 64%

    23 August, Donnerstag

    Zeit Temperatur Niederschläge Wind Luftdruck Luftfeuchtigkeit
    00:00 +6°C° 0 mm 4 m/S 737 mmHg 67%
    01:00 +7°C° 0 mm 3 m/S 737 mmHg 70%
    02:00 +5°C° 0 mm 3 m/S 737 mmHg 73%
    03:00 +5°C° 0 mm 3 m/S 737 mmHg 76%
    04:00 +5°C° 0 mm 3 m/S 737 mmHg 79%
    05:00 +4°C° 0 mm 3 m/S 737 mmHg 82%
    06:00 +5°C° 0 mm 3 m/S 737 mmHg 79%
    07:00 +6°C° 0 mm 4 m/S 738 mmHg 77%
    08:00 +7°C° 0 mm 4 m/S 738 mmHg 74%
    09:00 +10°C° 0 mm 4 m/S 738 mmHg 66%
    10:00 +10°C° 0 mm 5 m/S 738 mmHg 58%
    11:00 +13°C° 0 mm 5 m/S 738 mmHg 50%
    12:00 +14°C° 0 mm 5 m/S 737 mmHg 47%
    13:00 +15°C° 0 mm 5 m/S 737 mmHg 44%
    14:00 +16°C° 0 mm 5 m/S 736 mmHg 41%
    15:00 +15°C° 0 mm 5 m/S 736 mmHg 44%
    16:00 +14°C° 0 mm 5 m/S 737 mmHg 46%
    17:00 +14°C° 0 mm 6 m/S 737 mmHg 49%
    18:00 +13°C° 0 mm 5 m/S 737 mmHg 52%
    19:00 +12°C° 0 mm 4 m/S 738 mmHg 56%
    20:00 +11°C° 0 mm 3 m/S 738 mmHg 59%
    21:00 +11°C° 0 mm 3 m/S 738 mmHg 61%
    22:00 +11°C° 0 mm 3 m/S 738 mmHg 64%
    23:00 +10°C° 0 mm 3 m/S 738 mmHg 66%

    24 August, Freitag

    Zeit Temperatur Niederschläge Wind Luftdruck Luftfeuchtigkeit
    00:00 +9°C° 0 mm 3 m/S 738 mmHg 71%
    01:00 +9°C° 0 mm 3 m/S 737 mmHg 76%
    02:00 +8°C° 0 mm 3 m/S 737 mmHg 80%
    03:00 +8°C° 0 mm 3 m/S 737 mmHg 83%
    04:00 +7°C° 0 mm 3 m/S 737 mmHg 86%
    05:00 +7°C° 0 mm 3 m/S 737 mmHg 89%
    06:00 +8°C° 0 mm 3 m/S 737 mmHg 86%
    07:00 +8°C° 0 mm 3 m/S 738 mmHg 82%
    08:00 +9°C° 0 mm 3 m/S 738 mmHg 78%
    09:00 +10°C° 0 mm 3 m/S 738 mmHg 69%
    10:00 +12°C° 0 mm 3 m/S 737 mmHg 61%
    11:00 +13°C° 0 mm 3 m/S 737 mmHg 52%
    12:00 +14°C° 0 mm 3 m/S 736 mmHg 48%
    13:00 +16°C° 0 mm 2 m/S 735 mmHg 43%
    14:00 +17°C° 0 mm 2 m/S 735 mmHg 39%
    15:00 +17°C° 0 mm 2 m/S 735 mmHg 38%
    16:00 +17°C° 0 mm 3 m/S 735 mmHg 38%
    17:00 +17°C° 0 mm 3 m/S 734 mmHg 38%
    18:00 +16°C° 0 mm 3 m/S 735 mmHg 42%
    19:00 +14°C° 0 mm 3 m/S 735 mmHg 46%
    20:00 +12°C° 0 mm 4 m/S 735 mmHg 49%
    21:00 +12°C° 0 mm 4 m/S 735 mmHg 53%
    22:00 +11°C° 0 mm 4 m/S 735 mmHg 56%
    23:00 +11°C° 0 mm 4 m/S 735 mmHg 59%

    25 August, Samstag

    Zeit Temperatur Niederschläge Wind Luftdruck Luftfeuchtigkeit
    00:00 +10°C° 0 mm 4 m/S 734 mmHg 62%
    01:00 +10°C° 0 mm 4 m/S 734 mmHg 64%
    02:00 +8°C° 0 mm 4 m/S 734 mmHg 67%
    03:00 +8°C° 0 mm 4 m/S 734 mmHg 69%
    04:00 +7°C° 0 mm 4 m/S 734 mmHg 71%
    05:00 +7°C° 0 mm 4 m/S 734 mmHg 73%
    06:00 +8°C° 0 mm 4 m/S 734 mmHg 69%
    07:00 +9°C° 0 mm 5 m/S 734 mmHg 66%
    08:00 +10°C° 0 mm 5 m/S 734 mmHg 62%
    09:00 +13°C° 0 mm 5 m/S 733 mmHg 55%
    10:00 +15°C° 0 mm 5 m/S 733 mmHg 47%
    11:00 +17°C° 0 mm 5 m/S 733 mmHg 40%
    12:00 +19°C° 0 mm 5 m/S 732 mmHg 36%
    13:00 +20°C° 0 mm 5 m/S 731 mmHg 32%
    14:00 +21°C° 0 mm 5 m/S 730 mmHg 28%
    15:00 +20°C° 0 mm 4 m/S 730 mmHg 28%
    16:00 +20°C° 0 mm 4 m/S 730 mmHg 27%
    17:00 +20°C° 0 mm 4 m/S 730 mmHg 27%
    18:00 +19°C° 0 mm 4 m/S 730 mmHg 29%
    19:00 +18°C° 0 mm 4 m/S 730 mmHg 31%
    20:00 +17°C° 0 mm 4 m/S 731 mmHg 33%
    21:00 +15°C° 0 mm 4 m/S 730 mmHg 34%
    22:00 +15°C° 0 mm 4 m/S 730 mmHg 35%
    23:00 +14°C° 0 mm 4 m/S 730 mmHg 36%
    Mehr zeigen